METEOR 1-10 DEB, 8827

Orbit data source: Space-Track

METEOR 1-10 DEB, 8827 is space debris in LEO originally from a launch on Wed, 29 Dec 1971 UTC launched from the Plesetsk Missile And Space Complex (PKMTR). Debris objects in space refer to the collection of defunct objects orbiting the Earth. Examples of debris include non-operational satellites, rocket bodies, and fragments generated from explosions, collisions, or faulty payload assembly.

Loading next visibility...
Identifier
8827, 1971-120D
Orbit
LEO
Country
Flag of CISCIS
Related business
Manufacturer
Unknown
Mission
Spacecraft
Bus & Motor
Unknown
Mass
Unknown
Launch date (UTC)
1971-12-29 (54 years ago)
Launch vehicle
Unknown
Launch site
Plesetsk Missile And Space Complex (PKMTR)
Object type
Payload
Rocket body
Debris
Shape & HBR
Unknown shape, 0.2 m
Radar Cross Section
Medium (>0.1 m² and <1 m²)

Expand to show TLE details & history
Last TLE update: 2 days ago

TLE from 2 days ago
0 METEOR 1-10 DEB
1  8827U 71120D   26171.44099061  .00000189  00000-0  87635-4 0  9997
2  8827  81.2672 322.5307 0012773 218.1205 141.9067 14.17058683808595
Epoch: 2026-06-20T10:35Z
TLE epoch observation values (Epoch: 2026-06-20T10:35:01.588Z)
Latitude
-0.00008°
Longitude
-104.8815°
Altitude
845.484 km
Speed
7.426 km/s
True Right ascension
21h 30m 07s
True Declination
0° 00' 00"
Sunlit
Object was in full shadow at epoch
Visualization orbit readout
Latitude
Unknown
Longitude
Unknown
Altitude
Unknown
Speed
Unknown
Apparent Right ascension
Unknown
Apparent Declination
Unknown
Sunlit
N/A
Visualization observer readout
Local Sidereal Time
23:08:10
Azimuth
Unknown
Elevation
Unknown
Doppler factor
Unknown
Orbital elements
Apogee altitude
841.691 km
Perigee altitude
823.271 km
Semi-major axis
7,210.618 km
Eccentricity
0.00128
Inclination
81.2672°
RAAN
322.5307°
Arg. of periapsis
218.1205°
True anomaly
141.99689°
Mean anomaly
141.9067°
Eccentric anomaly
141.95181°
Mean motion
3.54474 °/min
Orbital period
101.56 mins
BSTAR
0.000087635
Loading maneuver chart data...
Computing Atmospheric mass density...

Documentation

Showing up to 5 results
|